Preview of NWS' New Version of Forecast
This preview is not operational and should not be used for support decisions.

Regional Weather Roundup (RWR)

Issued by National Weather Service (NWS)

                            
000
ASUS43 KDTX 232101
RWRMI 
MICHIGAN HOURLY REGIONAL WEATHER ROUNDUP
NATIONAL WEATHER SERVICE DETROIT/PONTIAC MI
500 PM EDT THU MAY 23 2019

NOTE: "FAIR" INDICATES FEW OR NO CLOUDS BELOW 12,000 FEET WITH NO
SIGNIFICANT WEATHER AND/OR OBSTRUCTION TO VISIBILITY.

MIZ047>049-052>055-059>063-066>070-074>076-081>083-232200-
SOUTHEAST LOWER MICHIGAN
  
CITY           SKY/WX    TMP DP  RH WIND       PRES   REMARKS
ADRIAN         FAIR      76  48  37 NW21G31   29.98R                  
ALMA           FAIR      73  45  37 W21G32    29.95R                  
ANN ARBOR      FAIR      77  46  33 W21G33    29.95R                  
BAD AXE        FAIR      73  46  37 W18G32    29.86S                  
CARO           FAIR      73  50  43 W16G28    29.89S                  
DETROIT CITY   FAIR      79  41  25 W17G33    29.91R                  
DETROIT        FAIR      79  45  29 W24G36    29.93R                  
FLINT          FAIR      73  48  41 W20G33    29.93R                  
GROSSE ILE     FAIR      78  48  34 W20G28    29.93R                  
HILLSDALE      FAIR      75  44  32 W25G38    29.99S                  
HOWELL         FAIR      73  41  32 W22G31    29.95S                  

CITY           SKY/WX    TMP DP  RH WIND       PRES   REMARKS
JACKSON        FAIR      74  45  35 SW22G35   29.96F                  
LAMBERTVILLE   FAIR      78  58  49 W12G22    29.96R                  
LANSING        FAIR      70  48  45 W18G35    29.97R                  
LAPEER         FAIR      74  46  36 W22G30    29.92R                  
MASON          FAIR      74  45  36 W20G29    29.97R                  
MONROE         FAIR      79  53  39 W23G32    29.94R                  
PONTIAC        FAIR      74  46  36 W25G36    29.91S                  
PORT HOPE        N/A     75  48  38 W14G28    29.84R                  
TRI CITIES     FAIR      73  52  47 W22G35    29.90R                  
MIDLAND        PTSUNNY   72  49  43 W20G33    29.90R                  
TROY           FAIR      78  32  18 SW20G35   29.93S                  
SAGINAW HB     FAIR      73  52  46 W17G32    29.90R                  
$$
MIZ043>046-050>051-056>058-064>065-071>073-077>080-232200-
SOUTHWEST LOWER MICHIGAN
  
CITY           SKY/WX    TMP DP  RH WIND       PRES   REMARKS
BATTLE CREEK   FAIR      73  46  38 W23G35    30.00F                  
BENTON HARBOR  FAIR      71  49  45 W15G21    30.02F                  
BIG RAPIDS     PTSUNNY   66  47  49 W16G25    29.97R                  
COLDWATER      FAIR      74  44  33 W18G26    30.00S                  
FREMONT        PTSUNNY   68  47  45 W15G23    29.99R                  
HOLLAND        FAIR      69  51  52 W15G24    30.01F                  
GRAND RAPIDS   FAIR      69  50  50 W25G35    29.99S                  
IONIA          FAIR      70  44  39 W22G29    29.97S                  
KALAMAZOO      FAIR      73  46  38 W20G32    30.01F                  
LUDINGTON      FAIR      62  47  56 W10G16    29.99S                  
MOUNT PLEASANT FAIR      70  49  46 W17G28    29.93R                  
MUSKEGON       FAIR      66  47  50 W9        30.01R                  
SOUTH HAVEN    FAIR      69  47  45 W12       30.02S                  
$$
MIZ016>042-232200-
NORTHERN LOWER MICHIGAN
  
CITY           SKY/WX    TMP DP  RH WIND       PRES   REMARKS
ALPENA         CLOUDY    64  45  49 W15G25    29.87R                  
BEAVER ISLAND  PTSUNNY   60  48  63 SW7       29.91R                  
BELLAIRE       PTSUNNY   65  46  50 W13G25    29.93R                  
CADILLAC       CLOUDY    63  46  52 W20G26    29.95R                  
CHARLEVOIX     PTSUNNY   62  47  59 SW17G26   29.95R                  
FRANKFORT      FAIR      62  45  53 W10G17    29.98R                  
GAYLORD        CLOUDY    60  45  57 W17G33    29.91R                  
GRAYLING       CLOUDY    63  46  53 W17G24    29.91R                  
HARBOR SPRINGS CLOUDY    52  44  75 W9        29.92R                  
HOUGHTON LAKE  PTSUNNY   64  46  52 W18G33    29.92R                  
MANISTEE       FAIR      63  48  58 W18       29.98R                  
OSCODA         CLOUDY    71  45  39 W16G29    29.85R                  
PELLSTON       PTSUNNY   64  49  57 W16G29    29.89R                  
ROGERS CITY    CLOUDY    63  47  55 W16G29    29.88R                  
TRAVERSE CITY  PTSUNNY   66  48  52 W17G29    29.93R                  
$$
MIZ007>008-015-232200-
EASTERN UPPER MICHIGAN
  
CITY           SKY/WX    TMP DP  RH WIND       PRES   REMARKS
KINROSS        CLOUDY    60  49  66 NW17G25   29.87R                  
MACKINAC ISLAN CLOUDY    52  47  83 SW10      29.88R                  
NEWBERRY       CLOUDY    62  47  57 NW13      29.88S                  
S. S. MARIE    CLOUDY    55  50  83 NW12G21   29.87R                  
MUNISING         N/A     51  45  79 NW13G22   29.93R                  
$$
MIZ004>006-011>014-085-232200-
CENTRAL UPPER MICHIGAN
  
CITY           SKY/WX    TMP DP  RH WIND       PRES   REMARKS
MANISTIQUE     CLOUDY    60  53  78 S6        29.88R                  
ESCANABA       CLOUDY    66  51  58 W18       29.90R                  
MENOMINEE      CLOUDY    64  49  57 W7        29.94R                  
SAWYER-GWINN   PTSUNNY   64  48  55 NW15G29   29.89R                  
$$
MIZ001>003-009>011-084-232200-
WESTERN UPPER MICHIGAN
  
CITY           SKY/WX    TMP DP  RH WIND       PRES   REMARKS
IRON MOUNTAIN  LGT RAIN  58  53  84 NW18G33   29.92R                  
HOUGHTON       CLOUDY    47  45  93 NW9       29.95R FOG              
COPPER HARBOR    N/A     46  44  93 N14G23    29.94R                  
IRONWOOD       LGT RAIN  50  48  93 NW10      30.02R FOG              
$$

ABBREVIATIONS USED IN REMARKS
   TC - TEMPERATURE IN CELSIUS
  WCI - WIND CHILL INDEX
   HX - HEAT INDEX
  VSB - VISIBILITY